Regional Weather Roundup
Issued by NWS

Home | Current Version | Previous Version | Text Only | Print | Product List | Glossary On
Versions: 1 2 3 4 5 6 7 8 9 10 11 12 13 14 15 16 17 18 19 20 21 22 23 24 25 26 27 28 29 30 31 32 33 34 35 36 37 38 39 40 41 42 43 44 45 46 47 48 49 50
000
ASUS43 KMKX 260000
RWRWI

WISCONSIN REGIONAL WEATHER ROUNDUP
NATIONAL WEATHER SERVICE MILWAUKEE/SULLIVAN WI
700 PM CDT SUN JUN 25 2017

NOTE: "FAIR" INDICATES FEW OR NO CLOUDS BELOW 12,000 FEET WITH NO
SIGNIFICANT WEATHER AND/OR OBSTRUCTIONS TO VISIBILITY.

WIZ001-002-006>008-014>016-023>028-260100-
NORTHWEST WISCONSIN

CITY           SKY/WX    TMP DP  RH WIND       PRES   REMARKS
SUPERIOR ARPT  NOT AVBL
ASHLAND        CLOUDY    55  48  77 NW8       30.08S
6HR MIN TEMP:  53; 6HR MAX TEMP:  57;

HAYWARD        MOSUNNY   59  48  67 VRB6      30.08F
6HR MIN TEMP:  51; 6HR MAX TEMP:  61; 6HR PCP:  0.12;

SIREN          PTSUNNY   57  48  72 N5        30.11S
CUMBERLAND     HVY RAIN  54  43  66 N16G30    30.11R
RICE LAKE      PTSUNNY   61  46  58 N10       30.11R
CHETEK         PTSUNNY   60  50  69 N8        30.09S
LADYSMITH      LGT RAIN  57  49  73 NW14      30.10R
EAU CLAIRE     NOT AVBL
MENOMONIE      MOSUNNY   65  46  51 NW9       30.09S
6HR MIN TEMP:  54; 6HR MAX TEMP:  66; 6HR PCP:  0.02;

NEW RICHMOND   PTSUNNY   63  40  42 N13G18    30.11S
OSCEOLA        SUNNY     63  41  44 NW7       30.13S
$$

WIZ003>005-009-010-017-018-260100-
NORTH CENTRAL WISCONSIN

CITY           SKY/WX    TMP DP  RH WIND       PRES   REMARKS
MANITOWISH WTR CLOUDY    52  52 100 NW14      30.05R
ARBOR VITAE    CLOUDY    54  51  90 NW10      30.04R
WOODRUFF       CLOUDY    54  51  90 NW10      30.04R
RHINELANDER    MOSUNNY   54  50  86 W9G20     30.05R
6HR MIN TEMP:  53; 6HR MAX TEMP:  65; 6HR PCP:  0.15;

EAGLE RIVER    CLOUDY    54  52  95 NW8       30.02S
LAND O LAKES   LGT RAIN  53  50  92 W5        30.04R
6HR MIN TEMP:  53; 6HR MAX TEMP:  65;

PHILLIPS       PTSUNNY   56  48  75 NW5       30.06S
TOMAHAWK       NOT AVBL
MEDFORD        MOSUNNY   57  49  76 NW10      30.07S
MERRILL        PTSUNNY   57  48  72 NW13G20   30.06R
6HR MIN TEMP:  55; 6HR MAX TEMP:  62; 6HR PCP:  0.03;

$$

WIZ029-030-035-036-043>047-260100-
CENTRAL WISCONSIN

CITY           SKY/WX    TMP DP  RH WIND       PRES   REMARKS
WAUSAU         PTSUNNY   59  48  67 NW14G23   30.04R
6HR MIN TEMP:  55; 6HR MAX TEMP:  63; 6HR PCP:  0.04;

MOSINEE        PTSUNNY   55  52  88 NW13G20   30.07R
MARSHFIELD     SUNNY     59  49  69 NW14G20   30.07S
6HR MIN TEMP:  54; 6HR MAX TEMP:  64; 6HR PCP:  0.19;

STEVENS POINT  LGT RAIN  55  54  97 W7        30.06S
WAUPACA        CLOUDY    61  57  87 W5        30.05S
6HR MIN TEMP:  57; 6HR MAX TEMP:  69;

WAUTOMA        PTSUNNY   58  55  90 W8        30.08R
6HR MIN TEMP:  56; 6HR MAX TEMP:  69; 6HR PCP:  0.04;

WISC RAPIDS    PTSUNNY   59  54  83 NW8       30.08S
6HR MIN TEMP:  54; 6HR MAX TEMP:  68; 6HR PCP:  0.16;

CAMP DOUGLAS   NOT AVBL
$$

WIZ011>013-019>022-031-037>040-048>050-260100-
NORTHEAST WISCONSIN

CITY           SKY/WX    TMP DP  RH WIND       PRES   REMARKS
ANTIGO         PTSUNNY   56  52  87 NW13G18   30.04S
SHAWANO        PTSUNNY   58  55  89 W6        30.02R
OCONTO         PTSUNNY   60  54  80 W9        29.99S
STURGEON BAY     N/A     59  54  83 NW3         N/A
6HR MIN TEMP:  58; 6HR MAX TEMP:  65;

GREEN BAY      PTSUNNY   59  55  87 W12       30.03R
6HR MIN TEMP:  59; 6HR MAX TEMP:  71; 6HR PCP:  0.01;

MANITOWOC      NOT AVBL
APPLETON       PTSUNNY   55  52  88 W9        30.03R
CLINTONVILLE   CLOUDY    61  50  67 NW10G20   30.03S
OSHKOSH        LGT RAIN  58  53  84 W7        30.05R
6HR MIN TEMP:  57; 6HR MAX TEMP:  68; 6HR PCP:  0.12;

$$

WIZ032>034-041-042-053>061-260100-
SOUTHWEST WISCONSIN

CITY           SKY/WX    TMP DP  RH WIND       PRES   REMARKS
LA CROSSE      MOSUNNY   72  45  37 NW14      30.10R
6HR MIN TEMP:  62; 6HR MAX TEMP:  73; 6HR PCP:  0.03;

SPARTA         LGT RAIN  61  54  79 NW7       30.10S
VIROQUA        MOSUNNY   64  48  57 NW15G22   30.11S
BOSCOBEL       SUNNY     67  49  52 W8G17     30.12S
6HR MIN TEMP:  62; 6HR MAX TEMP:  68; 6HR PCP: TRACE;

PRAIRIE DU CHI MOSUNNY   66  46  47 W8        30.12S
PLATTEVILLE    CLOUDY    65  50  58 W12G23    30.13S
$$

WIZ056-057-062-063-064-067-068-260100-
SOUTH CENTRAL WISCONSIN

CITY           SKY/WX    TMP DP  RH WIND       PRES   REMARKS
REEDSBURG      CLOUDY    56  56 100 W5        30.10F
BARABOO/DELLS  LGT RAIN  54  52  92 W3        30.10F
LONE ROCK      NOT AVBL
MINERAL POINT  PTSUNNY   64  52  63 W9        30.12R
MADISON        PTSUNNY   60  55  83 VRB6      30.09R
6HR MIN TEMP:  57; 6HR MAX TEMP:  66; 6HR PCP:  0.06;

MIDDLETON      CLOUDY    61  55  80 W13       30.10R
WATERTOWN      NOT AVBL
MONROE         PTSUNNY   63  46  55 W16G22    30.11S
JANESVILLE     PTSUNNY   66  48  52 W13G20    30.10R
$$

WIZ051-052-058>065-066-070>072-260100-
SOUTHEAST WISCONSIN

CITY           SKY/WX    TMP DP  RH WIND       PRES   REMARKS
MILWAUKEE      MOSUNNY   68  47  46 W18       30.06R
6HR MIN TEMP:  68; 6HR MAX TEMP:  72;

WAUKESHA       CLOUDY    63  48  59 W14       30.08R
MILWAUKEE/TIMM MOSUNNY   66  45  45 W14G21    30.06R
RACINE         SUNNY     66  48  52 W15G22    30.07R
6HR MIN TEMP:  66; 6HR MAX TEMP:  71;

KENOSHA        MOSUNNY   65  49  56 W14       30.07R
6HR MIN TEMP:  65; 6HR MAX TEMP:  71;

FOND DU LAC    LGT RAIN  59  51  75 W10       30.06R
6HR MIN TEMP:  58; 6HR MAX TEMP:  69; 6HR PCP: TRACE;

SHEBOYGAN      CLOUDY    61  56  83 W9        30.03R
6HR MIN TEMP:  60; 6HR MAX TEMP:  69; 6HR PCP:  0.01;

WEST BEND      PTSUNNY   63  46  55 W16       30.04S
JUNEAU         CLOUDY    62  49  62 W16G25    30.09R
$$

LSZ147-162-260100-
LAKE SUPERIOR

STATION/POSITION TIME  TEMP    WIND        PRES    WAVE
                       AIR SEA DIR/SP/G            HT/PER
                 (UTC) (F)     (DEG/KT/KT) (MB)    (FT/S)
W MID LAKE BUOY  2250   42 39  280/  8/ 10 1017.6R   0
DEVILS ISLAND    2300   49     270/  6/  7 1018.1F
SAXON HARBOR     2330   56     300/ 13/ 16 1017.6S
$$

LMZ867-665-643>646-260100-
LAKE MICHIGAN

STATION/POSITION TIME  TEMP    WIND        PRES    WAVE
                       AIR SEA DIR/SP/G            HT/PER
                 (UTC) (F)     (DEG/KT/KT) (MB)    (FT/S)
CHAMBERS ISLAND  2340   59     330/  3/  6 1015.6R
S GREEN BAY BUOY 2330   60     290/  8/ 12 1015.4S
N MID LAKE BUOY  2250   58 57  210/ 10/ 10 1015.8R   1/ 5
NORTHPORT PIER   2340   58     290/  2/  5 1015.6R
KEWAUNEE LAKESHO 2330   58     190/  6/  7 1015.4S
SHEBOYGAN LAKESH 2300   67     280/ 14/ 18 1016.0R
PORT WASHINGTON  2340   69     260/ 10/ 17 1017.6R
ATWATER BUOY     2209   65 57  270/ 16/ 19 1017.0F
MILWAUKEE LAKESH 2330   66     280/ 13/ 15   N/A
S MID LAKE BUOY  2250   63 62  260/  8/  8 1017.2F   1/ 4
KENOSHA   LAKESH 2300   67     280/ 13/ 21 1017.3
$$

TC  - TEMPERATURE IN CELSIUS
VSB - VISIBILITY IN STATUTE MILES
WCI - WIND CHILL INDEX
HX  - HEAT INDEX





USA.gov is the U.S. government's official web portal to all federal, state and local government web resources and services.